Location: Bun Machan
(52.1403°N, 7.3744°W)
Time: 08:41:19
(UTC+00:00)

Cosmos 1862 Rocket - Pass Details

Date: 14 July 2020
Orbit: 605 x 633 km, 82.5° (Epoch: 05 August)

Event Time Altitude Azimuth Distance (km) Brightness Sun altitude
Rises 01:22:48 0° 345° (NNW) 2,926 8.2 -15.5°
Reaches altitude 10° 01:25:04 10° 340° (NNW) 2,018 7.1 -15.4°
Maximum altitude 01:29:24 51° 265° (W) 802 4.0 -15.3°
Enters shadow 01:31:38 26° 203° (SSW) 1,245 4.5 -15.2°
